COSMOS 1641

Satellite information

Favourite Embed

Satellite Type and Status

PAYLOADIN ORBIT

Key statistics

Satellite COSMOS 1641 at a glance.

Uptime

14827

Days in orbit

Revolutions

≈ 12.5

Per day

Orbit

LEO

Low Earth Orbit

Inclination

74.1

Latest

Satellite identification and parameters

Extended collection of information and parameters for COSMOS 1641.

Object identification

Identified? True

Debris? False

Object name: COSMOS 1641

International designator: 1985-023G

Object number (NORAD): 15623

Object ID (CCSDS): 15623

Country: COMMONWEALTH OF INDEPENDENT STATES (CIS)

Current information (Y/N): Y

RCS size: MEDIUM

Orbital parameters

Period: 114.781 minutes

Inclination: 74.0538 deg

SMA: 7823.624 km

Apoapsis: 1480.109 km

Periapsis: 1410.868 km

RAAN: 152.3691 deg

Eccentricy: 0.00442512

Argument of periapsis: 276.9189 deg

Mean anomaly: 192.0935 deg

Mean motion: 12.54558286 rev/day

Mean motion (dot): 0.00000005 rev/day2

B* drag term: 0.00013211219 1/REarth

Two-line elements (TLE)

Creation date: Oct. 24, 2025, 2:48 a.m.

Reference frame: TEME

Reference center: EARTH

Epoch: Oct. 23, 2025, 11:36 p.m. UTC

TLE line 0: 0 COSMOS 1641

TLE line 1: 1 15623U 85023G 25296.98380586 .00000005 00000-0 13211-3 0 9992

TLE line 2: 2 15623 74.0538 152.3691 0044251 276.9189 192.0935 12.54558286859109

Live tracking on map

Real-time ground track for satellite COSMOS 1641.

In-orbit conjunctions

There are no conjunctions computed for COSMOS 1641, at the moment. Check back to stay up to date, as we update our databases every day.

Go to all conjunctions

Associated space launch

Military communications satellites

COSMOS 1641 was lifted into orbit during the mission ‘Kosmos-3M | Strela-1M 289-296’, on board a Kosmos-3M space rocket.

The launch took place on March 21, 1985, 12:08 a.m. from 132/2.

For more information about the launch, click the button.

Launch to space Kosmos-3M | Strela-1M 289-296
Kosmos-3M | Strela-1M 289-296

Agency: N/A

Status: Launch Successful

Launch date: March 21, 1985, 12:08 a.m. UTC

Rocket: Kosmos-3M

Launch pad: 132/2

Location: Plesetsk Cosmodrome, Russian Federation

...

Latest news about this satellite

There are no fresh news available about this satellite. Check back as we update our databases every day.


Newsletter sign-up

Weekly statistics, charts and insights to help you stay on top of the space industry.